Location: Noordwijk
(52.2400°N, 4.4500°E)
Time: 01:15:43
(UTC+00:00)

MOZHAYETS 4 - Visible Passes

Search period start: 10 December 2022 00:00
Search period end: 20 December 2022 00:00
Orbit: 659 x 677 km, 98.2° (Epoch: 09 December)

Date Brightness Start Highest point End Pass type
(mag) Time Alt. Az. Time Alt. Az. Time Alt. Az.
10 Dec 9.1 16:12:34 10° N 16:16:48 37° WNW 16:21:02 10° SW visible
11 Dec 9.9 16:45:18 10° N 16:48:47 22° WNW 16:52:17 10° WSW visible
12 Dec 10.4 17:18:31 10° NNW 17:20:37 13° NW 17:22:43 10° W visible
13 Dec 9.1 16:12:14 10° N 16:16:29 37° WNW 16:20:44 10° SW visible
14 Dec 9.9 16:44:56 10° N 16:48:27 22° WNW 16:51:58 10° WSW visible
15 Dec 10.4 17:18:09 10° NNW 17:20:17 13° NW 17:22:26 10° W visible
16 Dec 9.1 16:11:52 10° N 16:16:08 38° WNW 16:20:23 10° SW visible
17 Dec 9.9 16:44:34 10° N 16:48:06 22° WNW 16:51:39 10° WSW visible
18 Dec 10.4 17:17:45 10° NNW 17:19:56 13° NW 17:22:07 10° W visible
19 Dec 9.1 16:11:29 10° N 16:15:46 38° WNW 16:20:03 10° SW visible
